Weather History for Beale AFB, CA

Change the Weather History Date:

Tuesday, January 1, 2013

  Actual Average Record
Temperature  
Mean Temperature 42 °F -  
Max Temperature 51 °F 53 °F 62 °F (1997)
Min Temperature 32 °F 40 °F 31 °F (2008)
Degree Days  
Heating Degree Days 24    
Moisture  
Dew Point 32 °F    
Average Humidity 84    
Maximum Humidity 100    
Minimum Humidity 46    
Precipitation  
Precipitation 0.00 in - - ()
Sea Level Pressure  
Sea Level Pressure 30.25 in    
Wind  
Wind Speed 5 mph (NE)    
Max Wind Speed 10 mph    
Max Gust Speed -    
Visibility 6 miles    
Events      
Averages and records for this station are not official NWS values.
T = Trace of Precipitation, MM = Missing Value Source: NWS Daily Summary

Daily Weather History Graph

Daily Weather History Graph

Search for Another Location

Airport:

Trip Planner

Search our weather history database for the weather conditions in past years. The results will help you decide how hot, cold, wet, or windy it might be!

Date:

Astronomy

Jan. 01, 2013 Rise Set
Actual Time 7:25 AM PST 4:54 PM PST
Civil Twilight 6:55 AM PST 5:24 PM PST
Nautical Twilight 6:21 AM PST 5:57 PM PST
Astronomical Twilight 5:49 AM PST 6:30 PM PST
Moon 9:28 PM PST (1/1) 9:41 AM PST (1/1)
Length of Visible Light 10h 28m
Length of Day
9h 29m
Waning Gibbous, 82% of the Moon is Illuminated
Jan 1
Waning Gibbous
Jan 4
Last Quarter
Jan 11
New
Jan 18
First Quarter
Jan 26
Full

Hourly Weather History & Observations

Time (PST) Temp. Windchill Dew Point Humidity Pressure Visibility Wind Dir Wind Speed Gust Speed Precip Events Conditions
12:08 AM 35.6 °F 31.7 °F 32.0 °F 87% 30.25 in 6.0 mi ENE 4.6 mph - N/A   Clear
12:18 AM 33.8 °F 29.6 °F 32.0 °F 93% 30.25 in 4.0 mi NE 4.6 mph - N/A   Clear
12:28 AM 35.6 °F 30.7 °F 32.0 °F 87% 30.26 in 3.0 mi NE 5.8 mph - N/A   Clear
12:38 AM 35.6 °F 29.9 °F 32.0 °F 87% 30.26 in 2.5 mi NNE 6.9 mph - N/A   Clear
12:48 AM 35.6 °F 29.2 °F 32.0 °F 87% 30.26 in 5.0 mi NNE 8.1 mph - N/A   Partly Cloudy
12:58 AM 35.2 °F 27.6 °F 32.9 °F 91% 30.26 in 10.0 mi NNE 10.4 mph - N/A   Scattered Clouds
1:58 AM 38.3 °F 32.5 °F 34.7 °F 87% 30.27 in 10.0 mi NNE 8.1 mph - N/A   Overcast
2:28 AM 39.2 °F 33.6 °F 35.6 °F 87% 30.27 in 10.0 mi NE 8.1 mph - N/A   Overcast
2:38 AM 39.2 °F 34.2 °F 35.6 °F 87% 30.27 in 10.0 mi ENE 6.9 mph - N/A   Overcast
2:58 AM 39.7 °F 36.5 °F 34.9 °F 83% 30.27 in 10.0 mi ENE 4.6 mph - N/A   Overcast
3:58 AM 37.6 °F - 33.3 °F 84% 30.27 in 10.0 mi Calm Calm - N/A   Clear
4:58 AM 34.3 °F 27.7 °F 33.8 °F 98% 30.28 in 9.0 mi NNW 8.1 mph - N/A   Clear
5:58 AM 32.4 °F 25.3 °F 32.0 °F 99% 30.28 in 7.0 mi North 8.1 mph - N/A   Clear
6:38 AM 32.0 °F 25.6 °F 32.0 °F 100% 30.28 in 10.0 mi North 6.9 mph - N/A   Clear
6:58 AM 32.2 °F 25.8 °F 32.0 °F 99% 30.28 in 10.0 mi North 6.9 mph - N/A   Clear
7:58 AM 32.4 °F 26.0 °F 32.0 °F 99% 30.27 in 9.0 mi NNW 6.9 mph - N/A   Clear
8:58 AM 35.6 °F 28.6 °F 34.9 °F 97% 30.27 in 10.0 mi NNW 9.2 mph - N/A   Clear
9:58 AM 38.5 °F 33.4 °F 34.0 °F 84% 30.29 in 10.0 mi NNW 6.9 mph - N/A   Clear
10:58 AM 42.1 °F 37.1 °F 32.7 °F 69% 30.29 in 10.0 mi NW 8.1 mph - N/A   Clear
11:58 AM 45.5 °F 42.5 °F 34.2 °F 65% 30.28 in 10.0 mi NNW 5.8 mph - N/A   Clear
12:58 PM 46.9 °F - 33.4 °F 59% 30.25 in 10.0 mi Variable 5.8 mph - N/A   Clear
1:58 PM 49.5 °F - 32.2 °F 51% 30.25 in 10.0 mi NW 4.6 mph - N/A   Clear
2:58 PM 50.5 °F - 30.6 °F 46% 30.23 in 10.0 mi North 1.2 mph - N/A   Clear
3:58 PM 51.1 °F - 30.9 °F 46% 30.22 in 10.0 mi Calm Calm - N/A   Clear
4:58 PM 44.4 °F 41.2 °F 35.1 °F 70% 30.21 in 9.0 mi South 5.8 mph - N/A   Clear
5:48 PM 41.0 °F 38.0 °F 32.0 °F 70% 30.21 in 4.0 mi ESE 4.6 mph - N/A   Haze
5:58 PM 40.5 °F 36.5 °F 32.2 °F 72% 30.21 in 5.0 mi East 5.8 mph - N/A   Haze
6:58 PM 38.8 °F 34.6 °F 32.0 °F 76% 30.22 in 4.0 mi East 5.8 mph - N/A   Haze
7:18 PM 37.4 °F 34.9 °F 32.0 °F 81% 30.21 in 3.0 mi ESE 3.5 mph - N/A   Haze
7:48 PM 35.6 °F 31.7 °F 32.0 °F 87% 30.23 in 2.0 mi East 4.6 mph - N/A   Haze
7:58 PM 37.4 °F 33.8 °F 32.0 °F 81% 30.23 in 3.0 mi ENE 4.6 mph - N/A   Haze
8:18 PM 35.6 °F 31.7 °F 32.0 °F 87% 30.24 in 2.5 mi NE 4.6 mph - N/A   Haze
8:38 PM 35.6 °F 32.8 °F 32.0 °F 87% 30.23 in 3.0 mi East 3.5 mph - N/A   Clear
8:48 PM 35.6 °F 30.7 °F 32.0 °F 87% 30.24 in 3.0 mi East 5.8 mph - N/A   Haze
8:58 PM 33.8 °F - 32.0 °F 93% 30.24 in 3.0 mi East 2.3 mph - N/A   Clear
9:18 PM 33.8 °F - 32.0 °F 93% 30.24 in 7.0 mi Calm Calm - N/A   Clear
9:38 PM 32.0 °F - 32.0 °F 100% 30.24 in 6.0 mi East 2.3 mph - N/A   Clear
9:48 PM 32.0 °F - 30.2 °F 93% 30.25 in 5.0 mi NE 2.3 mph - N/A   Clear
9:58 PM 33.6 °F 30.6 °F 30.6 °F 89% 30.25 in 3.0 mi ENE 3.5 mph - N/A   Clear
10:28 PM 35.6 °F 31.7 °F 32.0 °F 87% 30.26 in 2.5 mi East 4.6 mph - N/A   Haze
10:38 PM 32.0 °F 27.5 °F 30.2 °F 93% 30.26 in 4.0 mi SSE 4.6 mph - N/A   Clear
10:48 PM 32.0 °F 28.7 °F 28.4 °F 87% 30.26 in 5.0 mi ESE 3.5 mph - N/A   Clear
10:58 PM 32.0 °F 27.5 °F 30.2 °F 93% 30.27 in 2.5 mi East 4.6 mph - N/A   Clear
11:08 PM 33.8 °F 29.6 °F 30.2 °F 87% 30.27 in 3.0 mi East 4.6 mph - N/A   Haze
11:18 PM 33.8 °F 28.6 °F 30.2 °F 87% 30.27 in 2.5 mi ENE 5.8 mph - N/A   Haze
11:28 PM 32.0 °F 27.5 °F 28.4 °F 87% 30.27 in 3.0 mi ENE 4.6 mph - N/A   Clear
11:38 PM 32.0 °F 26.4 °F 30.2 °F 93% 30.27 in 3.0 mi NE 5.8 mph - N/A   Haze
11:58 PM 33.4 °F 28.1 °F 29.5 °F 85% 30.27 in 3.0 mi ENE 5.8 mph - N/A   Haze